279  
ASUS43 KJKL 201810  
RWRJKL  
 
EAST KENTUCKY HOURLY WEATHER ROUNDUP  
NATIONAL WEATHER SERVICE JACKSON KY  
200 PM EDT SAT APR 20 2019  
 
NOTE: "FAIR" INDICATES FEW OR NO CLOUDS BELOW 12,000 FEET WITH  
NO SIGNIFICANT WEATHER AND/OR S TO VISIBILITY
.  
 
* THESE REPORTS ARE NOT UNDER NWS QUALITY CONTROL AND MAY NOT  
REPORT WEATHER SUCH AS PRECIPITATION AND FOG.
 
 
KYZ079-080-083-085-087-088-110-112-115-119-120-201900   
..EASTERN KENTUCKY
 
 
 
CITY SKY/WX TMP DP RH WIND PRES REMARKS
 
JACKSON CLOUDY 47 40 76 VRB5 29.66R  
6HR MIN TEMP: 44; 6HR MAX TEMP: 50; 6HR PCP: TRACE;  
 
LONDON LGT RAIN 45 42 89 W10 29.68R  
6HR MIN TEMP: 43; 6HR MAX TEMP: 45;  
 
SOMERSET* CLOUDY 43 36 75 SW9 29.73R  
MONTICELLO* CLOUDY 44 40 85 W16 29.74R  
6HR MIN TEMP: 40; 6HR MAX TEMP: 44;  
 
WILLIAMSBURG* CLOUDY 43 43 100 W3 29.70R  
MIDDLESBORO* LGT RAIN 46 43 91 SW5 29.69R  
6HR MIN TEMP: 44; 6HR MAX TEMP: 47; 6HR PCP: 0.02;  
 
HARLAN APT* CLOUDY 46 42 85 W7 29.67R  
PIKE CO APT* CLOUDY 50 39 66 CALM 29.63R  
BIG SANDY APT* CLOUDY 54 40 59 SW6 29.63S  
6HR MIN TEMP: 47; 6HR MAX TEMP: 54;  
 
MOREHEAD APT* CLOUDY 45 41 87 SW7G16 29.67R  

 
 
KYZ035-036-041-042-044-050-067-078-099-201900   
..CENTRAL KENTUCKY
 
 
 
CITY SKY/WX TMP DP RH WIND PRES REMARKS
 
MT STERLING* CLOUDY 45 41 87 W8 29.68R  
FLEMING/MASON* CLOUDY 47 44 88 W10 29.65R  
DANVILLE* CLOUDY 43 37 81 W8 29.71R  
LEXINGTON CLOUDY 42 36 79 SW9 29.68R  
6HR MIN TEMP: 38; 6HR MAX TEMP: 43; 6HR PCP: TRACE;  
 
FRANKFORT CLOUDY 43 39 86 W6 29.67R  
6HR MIN TEMP: 36; 6HR MAX TEMP: 43; 6HR PCP: 0.02;  
 
LOUISVILLE LGT RAIN 45 40 82 N15 29.72R  
6HR MIN TEMP: 41; 6HR MAX TEMP: 46; 6HR PCP: 0.25;  
 
LEBANON* MOCLDY 43 43 100 NW8 29.71R  
GLASGOW* RAIN 43 42 97 W13 29.73R  
BOWLING GREEN LGT RAIN 46 41 82 NW9G18 29.77R  
6HR MIN TEMP: 39; 6HR MAX TEMP: 46; 6HR PCP: 0.09;  
 

 
 
KYZ091>093-OHZ055-061-077-WVZ005-015-034-035-042-201900   
..SOUTHERN OHIO/WEST VIRGINIA
 
 
 
CITY SKY/WX TMP DP RH WIND PRES REMARKS
 
COVINGTON LGT RAIN 46 43 89 NW13 29.64R FOG  
COLUMBUS CLOUDY 54 44 69 SW12 29.59S  
DAYTON LGT RAIN 45 42 89 NW14 29.64R FOG  
WILMINGTON CLOUDY 49 44 83 N5 29.60S  
HUNTINGTON LGT RAIN 56 40 55 S10 29.61R  
CHARLESTON CLOUDY 55 42 61 SW12 29.60S  
PINEVILLE* CLOUDY 49 44 84 MISG 29.68R  
BECKLEY LGT RAIN 48 44 86 SW12 29.62R  
BLUEFIELD LGT RAIN 43 34 70 S9 29.65R  
LOGAN CO APT* MOCLDY 52 39 62 VRB6 29.61S  

 
 
VAZ002-007-008-TNZ017-027-036-066-071-201900   
..SOUTHWEST VIRGINIA/EAST TENNESSEE
 
 
 
CITY SKY/WX TMP DP RH WIND PRES REMARKS
 
WISE* DRIZZLE 45 41 87 W14 29.65R  
JONESVILLE* DRIZZLE 48 39 71 W7G16 29.69R  
ABINGDON* RAIN 43 40 89 SW12 29.68R  
BRISTOL CLOUDY 49 42 77 SE7 29.67S  
MORRISTOWN* CLOUDY 48 39 71 W13G20 29.68R  
SEVIERVILLE* CLOUDY 50 39 66 W10G18 29.70R  
KNOXVILLE RAIN 45 40 82 SW17 29.71R  
LAFOLLETTE* PTCLDY 46 41 81 SW8 29.72S  
OAK RIDGE LGT RAIN 46 40 79 VRB7 29.73R  
CROSSVILLE CLOUDY 41 38 89 W14 29.72R  
NASHVILLE CLOUDY 45 40 82 NW12G20 29.80R  

 
   
..KEY TO REMARKS
 
 
VSB - VISIBILITY IN MILES  
WCI - WIND CHILL INDEX  
HX - HEAT INDEX  
 

 
 
 
CLICK HERE TO GO TO PREVIOUS BULLETINS.

The Nexlab KY Page Main Text Page